| time (UTC) | temp F | wind direction | speed MPH | gust MPH | rain 1hr in | rain 24hr in | rain mn in | humidity % | barometer mb |
| 20260906143030 | 63 | 293 | 10.0 | 17.0 | 0.00 | 0.01 | 0.00 | 63 | 1024.0 |
| 20260906142528 | 63 | 301 | 8.0 | 17.0 | 0.00 | 0.01 | 0.00 | 63 | 1023.9 |
| 20260906142027 | 64 | 294 | 10.0 | 22.0 | 0.00 | 0.01 | 0.00 | 62 | 1023.9 |
| 20260906141525 | 64 | 281 | 8.0 | 19.0 | 0.00 | 0.01 | 0.00 | 62 | 1023.8 |
| 20260906141023 | 64 | 303 | 8.0 | 16.0 | 0.00 | 0.01 | 0.00 | 62 | 1023.8 |
| 20260906140521 | 63 | 291 | 8.0 | 17.0 | 0.00 | 0.01 | 0.00 | 63 | 1023.8 |
| 20260906140020 | 63 | 292 | 10.0 | 19.0 | 0.00 | 0.01 | 0.00 | 64 | 1023.7 |
| 20260906135518 | 63 | 273 | 7.0 | 17.0 | 0.00 | 0.01 | 0.00 | 64 | 1023.7 |
| 20260906135035 | 63 | 291 | 9.0 | 17.0 | 0.00 | 0.01 | 0.00 | 64 | 1023.7 |
| 20260906134533 | 63 | 294 | 9.0 | 19.0 | 0.00 | 0.01 | 0.00 | 64 | 1023.7 |
| 20260906134031 | 63 | 284 | 10.0 | 22.0 | 0.00 | 0.01 | 0.00 | 64 | 1023.7 |
| 20260906133529 | 63 | 280 | 10.0 | 22.0 | 0.00 | 0.01 | 0.00 | 64 | 1023.7 |
| 20260906133027 | 63 | 287 | 9.0 | 16.0 | 0.00 | 0.01 | 0.00 | 65 | 1023.6 |
| 20260906132526 | 62 | 287 | 8.0 | 18.0 | 0.00 | 0.01 | 0.00 | 65 | 1023.6 |
| 20260906132024 | 62 | 294 | 9.0 | 19.0 | 0.00 | 0.01 | 0.00 | 66 | 1023.5 |
| 20260906131522 | 62 | 286 | 9.0 | 21.0 | 0.00 | 0.01 | 0.00 | 67 | 1023.5 |
| 20260906131019 | 61 | 296 | 8.0 | 18.0 | 0.00 | 0.01 | 0.00 | 67 | 1023.6 |
| 20260906130518 | 61 | 290 | 9.0 | 21.0 | 0.00 | 0.01 | 0.00 | 68 | 1023.5 |
| 20260906130036 | 61 | 293 | 10.0 | 23.0 | 0.00 | 0.01 | 0.00 | 68 | 1023.6 |
| 20260906125534 | 62 | 273 | 10.0 | 18.0 | 0.00 | 0.01 | 0.00 | 67 | 1023.4 |
| 20260906125032 | 62 | 290 | 8.0 | 18.0 | 0.00 | 0.01 | 0.00 | 66 | 1023.4 |
| 20260906124530 | 62 | 281 | 9.0 | 16.0 | 0.00 | 0.01 | 0.00 | 66 | 1023.3 |
| 20260906124027 | 62 | 296 | 8.0 | 18.0 | 0.00 | 0.01 | 0.00 | 66 | 1023.3 |
| 20260906123526 | 62 | 285 | 10.0 | 19.0 | 0.00 | 0.01 | 0.00 | 66 | 1023.3 |
| 20260906123023 | 62 | 297 | 10.0 | 21.0 | 0.00 | 0.01 | 0.00 | 66 | 1023.3 |
| 20260906122522 | 63 | 278 | 9.0 | 21.0 | 0.00 | 0.01 | 0.00 | 65 | 1023.2 |
| 20260906122020 | 63 | 277 | 11.0 | 23.0 | 0.00 | 0.01 | 0.00 | 65 | 1023.2 |
| 20260906121518 | 63 | 276 | 9.0 | 18.0 | 0.00 | 0.01 | 0.00 | 65 | 1023.1 |
| 20260906121048 | 62 | 290 | 10.0 | 21.0 | 0.00 | 0.01 | 0.00 | 66 | 1023.0 |
| 20260906121016 | 62 | 290 | 10.0 | 21.0 | 0.00 | 0.01 | 0.00 | 66 | 1023.0 |
| 20260906120534 | 62 | 294 | 8.0 | 21.0 | 0.00 | 0.01 | 0.00 | 67 | 1023.1 |
| 20260906120032 | 62 | 295 | 9.0 | 18.0 | 0.00 | 0.01 | 0.00 | 67 | 1023.0 |
| 20260906115531 | 62 | 286 | 11.0 | 25.0 | 0.00 | 0.01 | 0.00 | 65 | 1022.9 |
| 20260906115029 | 62 | 293 | 11.0 | 21.0 | 0.00 | 0.01 | 0.00 | 66 | 1022.9 |
| 20260906114526 | 61 | 290 | 11.0 | 25.0 | 0.00 | 0.01 | 0.00 | 67 | 1022.8 |
| 20260906114024 | 61 | 278 | 8.0 | 18.0 | 0.00 | 0.01 | 0.00 | 67 | 1022.8 |
| 20260906113522 | 61 | 290 | 9.0 | 22.0 | 0.00 | 0.01 | 0.00 | 67 | 1022.7 |
| 20260906113021 | 61 | 296 | 10.0 | 19.0 | 0.00 | 0.01 | 0.00 | 67 | 1022.7 |
| 20260906112519 | 61 | 300 | 11.0 | 22.0 | 0.00 | 0.01 | 0.00 | 67 | 1022.6 |
| 20260906112017 | 61 | 280 | 11.0 | 18.0 | 0.00 | 0.01 | 0.00 | 68 | 1022.5 |
| 20260906111535 | 60 | 294 | 10.0 | 18.0 | 0.00 | 0.01 | 0.00 | 69 | 1022.5 |
| 20260906111033 | 60 | 300 | 10.0 | 24.0 | 0.00 | 0.01 | 0.00 | 69 | 1022.5 |
| 20260906110531 | 60 | 304 | 10.0 | 19.0 | 0.00 | 0.01 | 0.00 | 69 | 1022.5 |
| 20260906110030 | 60 | 287 | 9.0 | 18.0 | 0.00 | 0.01 | 0.00 | 69 | 1022.6 |
| 20260906105527 | 60 | 295 | 10.0 | 22.0 | 0.00 | 0.01 | 0.00 | 70 | 1022.5 |
| 20260906105025 | 60 | 287 | 9.0 | 17.0 | 0.00 | 0.01 | 0.00 | 70 | 1022.4 |
| 20260906104524 | 60 | 280 | 11.0 | 26.0 | 0.00 | 0.01 | 0.00 | 70 | 1022.3 |
| 20260906104022 | 60 | 294 | 9.0 | 17.0 | 0.00 | 0.01 | 0.00 | 70 | 1022.1 |
| 20260906103520 | 60 | 287 | 9.0 | 22.0 | 0.00 | 0.01 | 0.00 | 71 | 1022.1 |
| 20260906103018 | 60 | 290 | 6.0 | 13.0 | 0.00 | 0.01 | 0.00 | 71 | 1022.0 |
| 20260906102516 | 60 | 294 | 10.0 | 21.0 | 0.00 | 0.01 | 0.00 | 71 | 1022.0 |
| 20260906102034 | 60 | 296 | 11.0 | 23.0 | 0.00 | 0.01 | 0.00 | 70 | 1021.9 |
| 20260906101533 | 59 | 296 | 9.0 | 21.0 | 0.00 | 0.01 | 0.00 | 72 | 1021.9 |
| 20260906101031 | 59 | 286 | 9.0 | 15.0 | 0.00 | 0.01 | 0.00 | 72 | 1021.8 |
| 20260906100529 | 59 | 278 | 9.0 | 22.0 | 0.00 | 0.01 | 0.00 | 73 | 1021.8 |
| 20260906100027 | 59 | 291 | 12.0 | 29.0 | 0.00 | 0.01 | 0.00 | 73 | 1021.8 |
| 20260906095525 | 58 | 289 | 9.0 | 16.0 | 0.00 | 0.01 | 0.00 | 73 | 1021.6 |
| 20260906095023 | 58 | 279 | 11.0 | 23.0 | 0.00 | 0.01 | 0.00 | 73 | 1021.6 |
| 20260906094521 | 58 | 295 | 7.0 | 15.0 | 0.00 | 0.01 | 0.00 | 73 | 1021.6 |
| 20260906094020 | 59 | 284 | 9.0 | 16.0 | 0.00 | 0.01 | 0.00 | 72 | 1021.4 |
| 20260906093518 | 59 | 298 | 8.0 | 22.0 | 0.00 | 0.01 | 0.00 | 72 | 1021.3 |
| 20260906093048 | 59 | 284 | 10.0 | 26.0 | 0.00 | 0.01 | 0.00 | 72 | 1021.4 |
| 20260906093016 | 59 | 284 | 10.0 | 26.0 | 0.00 | 0.01 | 0.00 | 72 | 1021.4 |
| 20260906092534 | 59 | 280 | 9.0 | 27.0 | 0.00 | 0.01 | 0.00 | 72 | 1021.3 |
| 20260906092032 | 58 | 280 | 10.0 | 21.0 | 0.00 | 0.01 | 0.00 | 72 | 1021.2 |
| 20260906091530 | 58 | 286 | 8.0 | 21.0 | 0.00 | 0.01 | 0.00 | 73 | 1021.3 |
| 20260906091028 | 58 | 275 | 9.0 | 18.0 | 0.00 | 0.01 | 0.00 | 74 | 1021.2 |
| 20260906090527 | 57 | 281 | 8.0 | 22.0 | 0.00 | 0.01 | 0.00 | 75 | 1021.2 |
| 20260906090025 | 57 | 290 | 7.0 | 16.0 | 0.00 | 0.01 | 0.00 | 76 | 1021.2 |
| 20260906085523 | 57 | 293 | 7.0 | 17.0 | 0.00 | 0.01 | 0.00 | 76 | 1021.2 |
| 20260906085021 | 57 | 286 | 9.0 | 25.0 | 0.00 | 0.01 | 0.00 | 75 | 1021.2 |
| 20260906084519 | 57 | 291 | 6.0 | 13.0 | 0.00 | 0.01 | 0.00 | 74 | 1021.2 |
| 20260906084017 | 57 | 275 | 8.0 | 18.0 | 0.00 | 0.01 | 0.00 | 73 | 1021.1 |
| 20260906083535 | 57 | 278 | 7.0 | 19.0 | 0.00 | 0.01 | 0.00 | 73 | 1021.0 |
| 20260906083033 | 57 | 285 | 9.0 | 22.0 | 0.00 | 0.01 | 0.00 | 73 | 1020.9 |
| 20260906082531 | 57 | 304 | 7.0 | 18.0 | 0.00 | 0.01 | 0.00 | 73 | 1020.8 |
| 20260906082029 | 57 | 290 | 8.0 | 16.0 | 0.00 | 0.01 | 0.00 | 74 | 1020.7 |
| 20260906081527 | 57 | 287 | 8.0 | 17.0 | 0.00 | 0.01 | 0.00 | 74 | 1020.7 |
| 20260906081025 | 57 | 285 | 6.0 | 17.0 | 0.00 | 0.01 | 0.00 | 75 | 1020.8 |
| 20260906080523 | 56 | 283 | 5.0 | 14.0 | 0.00 | 0.01 | 0.00 | 75 | 1020.8 |
| 20260906080053 | 56 | 282 | 8.0 | 15.0 | 0.00 | 0.01 | 0.00 | 75 | 1020.7 |
| 20260906080021 | 56 | 282 | 8.0 | 15.0 | 0.00 | 0.01 | 0.00 | 75 | 1020.7 |
| 20260906075519 | 56 | 289 | 6.0 | 15.0 | 0.00 | 0.01 | 0.00 | 75 | 1020.7 |
| 20260906075017 | 56 | 280 | 7.0 | 14.0 | 0.00 | 0.01 | 0.00 | 75 | 1020.6 |
| 20260906074535 | 56 | 292 | 7.0 | 16.0 | 0.00 | 0.01 | 0.00 | 75 | 1020.6 |
| 20260906074033 | 56 | 293 | 7.0 | 13.0 | 0.00 | 0.01 | 0.00 | 75 | 1020.4 |
| 20260906073531 | 56 | 280 | 9.0 | 18.0 | 0.00 | 0.01 | 0.00 | 74 | 1020.5 |
| 20260906073029 | 56 | 284 | 6.0 | 11.0 | 0.00 | 0.01 | 0.00 | 74 | 1020.4 |
| 20260906072527 | 57 | 267 | 11.0 | 26.0 | 0.00 | 0.01 | 0.00 | 73 | 1020.3 |
| 20260906072025 | 57 | 271 | 6.0 | 17.0 | 0.00 | 0.01 | 0.00 | 73 | 1020.3 |
| 20260906071523 | 57 | 293 | 6.0 | 11.0 | 0.00 | 0.01 | 0.00 | 73 | 1020.1 |
| 20260906071021 | 57 | 294 | 7.0 | 21.0 | 0.00 | 0.01 | 0.00 | 73 | 1020.2 |
| 20260906070519 | 57 | 288 | 9.0 | 22.0 | 0.00 | 0.01 | 0.00 | 73 | 1020.1 |
| 20260906070017 | 56 | 284 | 7.0 | 18.0 | 0.00 | 0.01 | 0.00 | 74 | 1020.0 |
| 20260906065535 | 56 | 279 | 7.0 | 15.0 | 0.00 | 0.01 | 0.00 | 74 | 1020.0 |
| 20260906065034 | 56 | 289 | 7.0 | 13.0 | 0.00 | 0.01 | 0.00 | 74 | 1019.9 |
| 20260906064531 | 56 | 299 | 7.0 | 15.0 | 0.00 | 0.01 | 0.00 | 74 | 1019.8 |
| 20260906064030 | 56 | 283 | 8.0 | 16.0 | 0.00 | 0.01 | 0.00 | 74 | 1019.8 |
| 20260906063528 | 56 | 290 | 9.0 | 18.0 | 0.00 | 0.01 | 0.00 | 74 | 1019.7 |
| 20260906063026 | 56 | 283 | 8.0 | 17.0 | 0.00 | 0.01 | 0.00 | 74 | 1019.6 |
| 20260906062524 | 56 | 282 | 8.0 | 15.0 | 0.00 | 0.01 | 0.00 | 74 | 1019.7 |
| 20260906062022 | 56 | 297 | 7.0 | 16.0 | 0.00 | 0.01 | 0.00 | 74 | 1019.7 |
| 20260906061520 | 56 | 276 | 10.0 | 17.0 | 0.00 | 0.01 | 0.00 | 74 | 1019.6 |
| 20260906061018 | 56 | 284 | 6.0 | 14.0 | 0.00 | 0.01 | 0.00 | 74 | 1019.6 |
| 20260906060516 | 56 | 280 | 9.0 | 21.0 | 0.00 | 0.01 | 0.00 | 74 | 1019.5 |
| 20260906060035 | 56 | 281 | 9.0 | 26.0 | 0.00 | 0.01 | 0.00 | 74 | 1019.4 |
| 20260906055533 | 56 | 277 | 8.0 | 21.0 | 0.00 | 0.01 | 0.00 | 75 | 1019.3 |
| 20260906055031 | 56 | 292 | 7.0 | 15.0 | 0.00 | 0.01 | 0.00 | 76 | 1019.3 |
| 20260906054529 | 56 | 294 | 7.0 | 21.0 | 0.00 | 0.01 | 0.00 | 76 | 1019.2 |
| 20260906054027 | 56 | 280 | 7.0 | 14.0 | 0.00 | 0.01 | 0.00 | 77 | 1019.2 |
| 20260906053525 | 56 | 275 | 8.0 | 18.0 | 0.00 | 0.01 | 0.00 | 77 | 1019.2 |
| 20260906053023 | 56 | 280 | 6.0 | 13.0 | 0.00 | 0.01 | 0.00 | 77 | 1019.2 |
| 20260906052522 | 56 | 287 | 7.0 | 18.0 | 0.00 | 0.01 | 0.00 | 78 | 1019.1 |
| 20260906052019 | 56 | 287 | 7.0 | 16.0 | 0.00 | 0.01 | 0.00 | 78 | 1019.1 |
| 20260906051518 | 56 | 292 | 8.0 | 16.0 | 0.00 | 0.01 | 0.00 | 78 | 1019.0 |
| 20260906051049 | 56 | 294 | 7.0 | 15.0 | 0.00 | 0.01 | 0.00 | 78 | 1019.1 |
| 20260906051015 | 56 | 294 | 7.0 | 15.0 | 0.00 | 0.01 | 0.00 | 78 | 1019.1 |
| 20260906050534 | 56 | 283 | 7.0 | 19.0 | 0.00 | 0.01 | 0.00 | 78 | 1018.9 |
| 20260906050032 | 56 | 279 | 6.0 | 14.0 | 0.00 | 0.01 | 0.00 | 78 | 1018.9 |
| 20260906045530 | 56 | 283 | 7.0 | 14.0 | 0.00 | 0.01 | 0.00 | 78 | 1018.9 |
| 20260906045028 | 56 | 281 | 7.0 | 16.0 | 0.00 | 0.01 | 0.00 | 78 | 1018.9 |
| 20260906044526 | 56 | 275 | 6.0 | 13.0 | 0.00 | 0.01 | 0.00 | 78 | 1018.8 |
| 20260906044024 | 56 | 279 | 8.0 | 14.0 | 0.00 | 0.01 | 0.00 | 78 | 1018.8 |
| 20260906043523 | 56 | 281 | 7.0 | 15.0 | 0.00 | 0.01 | 0.00 | 78 | 1018.8 |
| 20260906043415 | 56 | 281 | 8.0 | 21.0 | 0.00 | 0.01 | 0.00 | 78 | 1018.6 |
| 20260906043021 | 56 | 281 | 8.0 | 21.0 | 0.00 | 0.01 | 0.00 | 78 | 1018.6 |
| 20260906042518 | 56 | 284 | 8.0 | 19.0 | 0.00 | 0.01 | 0.00 | 79 | 1018.6 |
| 20260906042017 | 56 | 285 | 8.0 | 16.0 | 0.00 | 0.01 | 0.00 | 79 | 1018.5 |
| 20260906041535 | 56 | 274 | 8.0 | 23.0 | 0.00 | 0.01 | 0.00 | 79 | 1018.5 |
| 20260906041033 | 56 | 287 | 6.0 | 18.0 | 0.00 | 0.01 | 0.00 | 78 | 1018.4 |
| 20260906040531 | 56 | 291 | 8.0 | 17.0 | 0.00 | 0.01 | 0.00 | 79 | 1018.4 |
| 20260906040029 | 56 | 290 | 8.0 | 16.0 | 0.00 | 0.01 | 0.00 | 79 | 1018.2 |
| 20260906035527 | 56 | 289 | 7.0 | 14.0 | 0.00 | 0.01 | 0.00 | 79 | 1018.2 |
| 20260906035025 | 56 | 276 | 6.0 | 14.0 | 0.00 | 0.01 | 0.00 | 79 | 1018.2 |
| 20260906034523 | 56 | 270 | 7.0 | 13.0 | 0.00 | 0.01 | 0.00 | 79 | 1018.2 |
| 20260906034021 | 56 | 282 | 6.0 | 16.0 | 0.00 | 0.01 | 0.00 | 78 | 1018.2 |
| 20260906033519 | 56 | 277 | 7.0 | 13.0 | 0.00 | 0.01 | 0.00 | 78 | 1018.1 |
| 20260906033018 | 56 | 290 | 9.0 | 23.0 | 0.00 | 0.01 | 0.00 | 78 | 1018.0 |
| 20260906032516 | 56 | 293 | 5.0 | 11.0 | 0.00 | 0.01 | 0.00 | 79 | 1018.0 |
| 20260906032034 | 56 | 281 | 7.0 | 15.0 | 0.00 | 0.01 | 0.00 | 79 | 1018.0 |
| 20260906031532 | 56 | 286 | 7.0 | 16.0 | 0.00 | 0.01 | 0.00 | 79 | 1017.9 |
| 20260906031030 | 56 | 288 | 6.0 | 14.0 | 0.00 | 0.01 | 0.00 | 79 | 1017.9 |
| 20260906030528 | 56 | 280 | 6.0 | 17.0 | 0.00 | 0.01 | 0.00 | 79 | 1017.9 |
| 20260906030026 | 56 | 283 | 5.0 | 11.0 | 0.00 | 0.01 | 0.00 | 80 | 1017.8 |
| 20260906025524 | 56 | 280 | 7.0 | 11.0 | 0.00 | 0.01 | 0.00 | 80 | 1018.0 |
| 20260906025022 | 56 | 291 | 7.0 | 19.0 | 0.00 | 0.01 | 0.00 | 80 | 1017.8 |
| 20260906024520 | 56 | 287 | 7.0 | 18.0 | 0.00 | 0.01 | 0.00 | 80 | 1017.8 |
| 20260906024018 | 56 | 282 | 8.0 | 15.0 | 0.00 | 0.01 | 0.00 | 80 | 1017.7 |
| 20260906023517 | 56 | 287 | 6.0 | 15.0 | 0.00 | 0.02 | 0.00 | 80 | 1017.8 |
| 20260906023035 | 56 | 285 | 5.0 | 11.0 | 0.00 | 0.02 | 0.00 | 80 | 1017.8 |
| 20260906022533 | 56 | 278 | 6.0 | 15.0 | 0.00 | 0.02 | 0.00 | 80 | 1017.7 |
| 20260906022031 | 56 | 285 | 5.0 | 11.0 | 0.00 | 0.02 | 0.00 | 80 | 1017.7 |
| 20260906021529 | 56 | 288 | 6.0 | 13.0 | 0.00 | 0.02 | 0.00 | 80 | 1017.7 |
| 20260906021028 | 56 | 290 | 6.0 | 15.0 | 0.00 | 0.02 | 0.00 | 80 | 1017.7 |
| 20260906020526 | 56 | 270 | 7.0 | 18.0 | 0.00 | 0.02 | 0.00 | 80 | 1017.7 |
| 20260906020024 | 56 | 285 | 6.0 | 11.0 | 0.00 | 0.02 | 0.00 | 80 | 1017.7 |
| 20260906015522 | 56 | 288 | 6.0 | 13.0 | 0.00 | 0.02 | 0.00 | 80 | 1017.6 |
| 20260906015020 | 56 | 287 | 6.0 | 11.0 | 0.00 | 0.02 | 0.00 | 80 | 1017.7 |
| 20260906014519 | 56 | 282 | 6.0 | 16.0 | 0.00 | 0.02 | 0.00 | 80 | 1017.5 |
| 20260906014016 | 56 | 280 | 8.0 | 17.0 | 0.00 | 0.02 | 0.00 | 80 | 1017.6 |
| 20260906013534 | 56 | 290 | 7.0 | 15.0 | 0.00 | 0.02 | 0.00 | 80 | 1017.6 |
| 20260906013033 | 56 | 282 | 6.0 | 16.0 | 0.00 | 0.02 | 0.00 | 80 | 1017.5 |
| 20260906012531 | 56 | 285 | 9.0 | 17.0 | 0.00 | 0.02 | 0.00 | 80 | 1017.5 |
| 20260906012029 | 56 | 287 | 7.0 | 15.0 | 0.00 | 0.02 | 0.00 | 80 | 1017.6 |
| 20260906011527 | 56 | 271 | 8.0 | 15.0 | 0.00 | 0.02 | 0.00 | 80 | 1017.6 |
| 20260906011025 | 56 | 285 | 5.0 | 11.0 | 0.00 | 0.02 | 0.00 | 80 | 1017.5 |
| 20260906010524 | 56 | 271 | 7.0 | 13.0 | 0.00 | 0.02 | 0.00 | 80 | 1017.5 |
| 20260906010022 | 56 | 288 | 7.0 | 18.0 | 0.00 | 0.02 | 0.00 | 80 | 1017.5 |
| 20260906005520 | 56 | 273 | 7.0 | 14.0 | 0.00 | 0.02 | 0.00 | 80 | 1017.5 |
| 20260906005018 | 56 | 294 | 7.0 | 15.0 | 0.00 | 0.02 | 0.00 | 80 | 1017.5 |
| 20260906004516 | 56 | 281 | 7.0 | 15.0 | 0.00 | 0.03 | 0.00 | 80 | 1017.6 |
| 20260906004034 | 56 | 291 | 8.0 | 23.0 | 0.00 | 0.03 | 0.00 | 80 | 1017.4 |
| 20260906003532 | 56 | 288 | 6.0 | 10.0 | 0.00 | 0.03 | 0.00 | 81 | 1017.4 |
| 20260906003031 | 56 | 284 | 5.0 | 11.0 | 0.00 | 0.03 | 0.00 | 80 | 1017.4 |
| 20260906002529 | 56 | 289 | 6.0 | 13.0 | 0.00 | 0.03 | 0.00 | 80 | 1017.5 |
| 20260906002027 | 56 | 286 | 7.0 | 17.0 | 0.00 | 0.03 | 0.00 | 80 | 1017.3 |
| 20260906001525 | 56 | 291 | 6.0 | 11.0 | 0.00 | 0.03 | 0.00 | 80 | 1017.4 |
| 20260906001023 | 56 | 278 | 5.0 | 10.0 | 0.00 | 0.03 | 0.00 | 80 | 1017.3 |
| 20260906000521 | 56 | 298 | 6.0 | 14.0 | 0.00 | 0.04 | 0.00 | 80 | 1017.2 |
| 20260906000019 | 56 | 290 | 6.0 | 14.0 | 0.00 | 0.04 | 0.00 | 80 | 1017.3 |
| 20260905235518 | 56 | 296 | 7.0 | 16.0 | 0.00 | 0.05 | 0.00 | 79 | 1017.4 |
| 20260905235015 | 56 | 301 | 7.0 | 15.0 | 0.00 | 0.05 | 0.00 | 80 | 1017.3 |
| 20260905234534 | 56 | 281 | 6.0 | 13.0 | 0.00 | 0.05 | 0.00 | 80 | 1017.2 |
| 20260905234032 | 56 | 281 | 6.0 | 13.0 | 0.00 | 0.05 | 0.00 | 80 | 1017.2 |
| 20260905233530 | 56 | 299 | 6.0 | 14.0 | 0.00 | 0.05 | 0.00 | 80 | 1017.2 |
| 20260905233028 | 56 | 283 | 5.0 | 17.0 | 0.00 | 0.05 | 0.00 | 80 | 1017.3 |
| 20260905232526 | 56 | 283 | 7.0 | 14.0 | 0.00 | 0.05 | 0.00 | 80 | 1017.3 |
| 20260905232025 | 56 | 287 | 6.0 | 16.0 | 0.00 | 0.05 | 0.00 | 80 | 1017.2 |
| 20260905231523 | 56 | 285 | 7.0 | 15.0 | 0.00 | 0.05 | 0.00 | 79 | 1017.2 |
| 20260905231021 | 56 | 286 | 6.0 | 14.0 | 0.00 | 0.05 | 0.00 | 79 | 1017.1 |
| 20260905230519 | 56 | 275 | 6.0 | 15.0 | 0.00 | 0.05 | 0.00 | 79 | 1017.1 |
| 20260905230049 | 56 | 280 | 7.0 | 17.0 | 0.00 | 0.05 | 0.00 | 79 | 1017.1 |
| 20260905230017 | 56 | 280 | 7.0 | 17.0 | 0.00 | 0.05 | 0.00 | 79 | 1017.1 |
| 20260905225535 | 56 | 290 | 7.0 | 15.0 | 0.00 | 0.05 | 0.00 | 79 | 1017.0 |
| 20260905225034 | 56 | 281 | 7.0 | 13.0 | 0.00 | 0.05 | 0.00 | 79 | 1017.1 |
| 20260905224532 | 56 | 282 | 6.0 | 11.0 | 0.00 | 0.05 | 0.00 | 79 | 1017.2 |
| 20260905224030 | 56 | 281 | 6.0 | 11.0 | 0.00 | 0.05 | 0.00 | 79 | 1017.2 |
| 20260905223528 | 56 | 279 | 6.0 | 13.0 | 0.00 | 0.05 | 0.00 | 79 | 1017.1 |
| 20260905223026 | 57 | 278 | 7.0 | 16.0 | 0.00 | 0.05 | 0.00 | 79 | 1017.0 |
| 20260905222524 | 57 | 283 | 7.0 | 16.0 | 0.00 | 0.05 | 0.00 | 78 | 1017.2 |
| 20260905222022 | 57 | 290 | 6.0 | 15.0 | 0.00 | 0.05 | 0.00 | 78 | 1017.2 |
| 20260905221520 | 57 | 289 | 6.0 | 14.0 | 0.00 | 0.05 | 0.00 | 77 | 1017.1 |
| 20260905221019 | 57 | 282 | 5.0 | 15.0 | 0.00 | 0.05 | 0.00 | 77 | 1017.1 |
| 20260905220517 | 57 | 286 | 5.0 | 10.0 | 0.00 | 0.05 | 0.00 | 77 | 1017.0 |
| 20260905220035 | 57 | 285 | 5.0 | 13.0 | 0.00 | 0.05 | 0.05 | 77 | 1017.0 |
| 20260905215533 | 57 | 288 | 6.0 | 15.0 | 0.00 | 0.05 | 0.05 | 76 | 1017.0 |
| 20260905215032 | 57 | 274 | 7.0 | 18.0 | 0.00 | 0.05 | 0.05 | 76 | 1016.9 |
| 20260905214529 | 57 | 284 | 6.0 | 16.0 | 0.00 | 0.05 | 0.05 | 76 | 1016.9 |
| 20260905214027 | 57 | 286 | 6.0 | 13.0 | 0.00 | 0.05 | 0.05 | 76 | 1017.0 |
| 20260905213526 | 58 | 295 | 7.0 | 11.0 | 0.00 | 0.05 | 0.05 | 76 | 1016.8 |
| 20260905213024 | 58 | 287 | 6.0 | 14.0 | 0.00 | 0.05 | 0.05 | 76 | 1016.7 |
| 20260905212522 | 58 | 285 | 5.0 | 13.0 | 0.00 | 0.05 | 0.05 | 76 | 1016.6 |
| 20260905212020 | 58 | 278 | 6.0 | 14.0 | 0.00 | 0.05 | 0.05 | 76 | 1016.7 |
| 20260905211518 | 58 | 278 | 7.0 | 15.0 | 0.00 | 0.05 | 0.05 | 76 | 1016.7 |
| 20260905211016 | 58 | 282 | 8.0 | 15.0 | 0.00 | 0.07 | 0.05 | 76 | 1016.6 |
| 20260905210534 | 58 | 284 | 7.0 | 13.0 | 0.00 | 0.08 | 0.05 | 75 | 1016.6 |
| 20260905210032 | 58 | 282 | 8.0 | 15.0 | 0.00 | 0.08 | 0.05 | 75 | 1016.5 |
| 20260905205531 | 58 | 280 | 8.0 | 15.0 | 0.00 | 0.08 | 0.05 | 74 | 1016.6 |
| 20260905205029 | 58 | 284 | 8.0 | 16.0 | 0.00 | 0.08 | 0.05 | 74 | 1016.6 |
| 20260905204527 | 58 | 279 | 8.0 | 17.0 | 0.00 | 0.08 | 0.05 | 74 | 1016.6 |
| 20260905204025 | 58 | 282 | 10.0 | 26.0 | 0.00 | 0.08 | 0.05 | 74 | 1016.6 |
| 20260905203523 | 58 | 279 | 9.0 | 22.0 | 0.00 | 0.09 | 0.05 | 75 | 1016.6 |
| 20260905203021 | 59 | 291 | 7.0 | 13.0 | 0.00 | 0.09 | 0.05 | 74 | 1016.5 |
| 20260905202520 | 59 | 289 | 8.0 | 19.0 | 0.00 | 0.09 | 0.05 | 74 | 1016.5 |
| 20260905202018 | 59 | 277 | 7.0 | 14.0 | 0.00 | 0.09 | 0.05 | 74 | 1016.4 |
| 20260905201516 | 59 | 279 | 6.0 | 15.0 | 0.00 | 0.09 | 0.05 | 74 | 1016.4 |
| 20260905201034 | 59 | 288 | 8.0 | 16.0 | 0.00 | 0.09 | 0.05 | 74 | 1016.3 |
| 20260905200532 | 59 | 266 | 8.0 | 19.0 | 0.00 | 0.09 | 0.05 | 75 | 1016.4 |
| 20260905200030 | 59 | 291 | 4.0 | 9.0 | 0.00 | 0.09 | 0.05 | 76 | 1016.4 |
| 20260905195528 | 59 | 284 | 4.0 | 11.0 | 0.00 | 0.09 | 0.05 | 76 | 1016.2 |
| 20260905195026 | 59 | 283 | 3.0 | 8.0 | 0.00 | 0.09 | 0.05 | 76 | 1016.4 |
| 20260905194524 | 59 | 278 | 3.0 | 8.0 | 0.00 | 0.09 | 0.05 | 76 | 1016.3 |
| 20260905194022 | 59 | 284 | 4.0 | 11.0 | 0.00 | 0.09 | 0.05 | 76 | 1016.3 |
| 20260905193520 | 59 | 275 | 4.0 | 10.0 | 0.00 | 0.09 | 0.05 | 76 | 1016.3 |
| 20260905193019 | 59 | 283 | 3.0 | 6.0 | 0.01 | 0.09 | 0.05 | 75 | 1016.2 |
| 20260905192516 | 59 | 283 | 3.0 | 10.0 | 0.01 | 0.09 | 0.05 | 75 | 1016.2 |
| 20260905192035 | 60 | 285 | 5.0 | 11.0 | 0.01 | 0.09 | 0.05 | 75 | 1016.5 |
| 20260905191532 | 60 | 268 | 3.0 | 6.0 | 0.01 | 0.09 | 0.05 | 74 | 1016.4 |
| 20260905191043 | 60 | 286 | 3.0 | 7.0 | 0.01 | 0.09 | 0.05 | 73 | 1016.6 |
| 20260905191030 | 60 | 272 | 2.0 | 7.0 | 0.01 | 0.09 | 0.05 | 73 | 1016.4 |
| 20260905190528 | 60 | 286 | 3.0 | 7.0 | 0.01 | 0.09 | 0.05 | 73 | 1016.6 |
| 20260905190026 | 60 | 270 | 3.0 | 4.0 | 0.01 | 0.09 | 0.05 | 73 | 1016.6 |
| 20260905185524 | 60 | 299 | 3.0 | 7.0 | 0.01 | 0.09 | 0.05 | 74 | 1016.7 |
| 20260905185023 | 60 | 289 | 3.0 | 7.0 | 0.01 | 0.09 | 0.05 | 73 | 1016.4 |
| 20260905184521 | 60 | 278 | 1.0 | 4.0 | 0.01 | 0.09 | 0.05 | 72 | 1016.4 |
| 20260905184018 | 60 | 277 | 3.0 | 8.0 | 0.01 | 0.09 | 0.05 | 73 | 1016.5 |
| 20260905183517 | 60 | 281 | 4.0 | 13.0 | 0.01 | 0.09 | 0.05 | 73 | 1016.6 |
| 20260905183035 | 60 | 286 | 4.0 | 9.0 | 0.00 | 0.08 | 0.04 | 72 | 1016.7 |
| 20260905182533 | 61 | 288 | 6.0 | 14.0 | 0.00 | 0.08 | 0.04 | 72 | 1016.9 |
| 20260905182031 | 61 | 286 | 6.0 | 15.0 | 0.00 | 0.08 | 0.04 | 69 | 1017.0 |
| 20260905181529 | 61 | 312 | 6.0 | 13.0 | 0.00 | 0.08 | 0.04 | 67 | 1016.9 |
| 20260905181028 | 62 | 303 | 5.0 | 10.0 | 0.00 | 0.08 | 0.04 | 66 | 1016.8 |
| 20260905180526 | 62 | 300 | 2.0 | 4.0 | 0.00 | 0.08 | 0.04 | 64 | 1016.6 |
| 20260905180024 | 62 | 324 | 1.0 | 4.0 | 0.00 | 0.08 | 0.04 | 63 | 1016.2 |
| 20260905175522 | 63 | 0.0 | 0.0 | 0.00 | 0.08 | 0.04 | 63 | 1016.1 | |
| 20260905175020 | 63 | 0.0 | 0.0 | 0.00 | 0.08 | 0.04 | 63 | 1016.1 | |
| 20260905174519 | 63 | 270 | 0.0 | 3.0 | 0.00 | 0.08 | 0.04 | 63 | 1016.1 |
| 20260905174016 | 63 | 0.0 | 0.0 | 0.00 | 0.08 | 0.04 | 62 | 1016.0 | |
| 20260905173534 | 63 | 0.0 | 0.0 | 0.00 | 0.08 | 0.04 | 62 | 1015.9 | |
| 20260905173033 | 63 | 284 | 1.0 | 3.0 | 0.00 | 0.08 | 0.04 | 62 | 1015.9 |
| 20260905172531 | 63 | 0.0 | 0.0 | 0.00 | 0.08 | 0.04 | 62 | 1015.8 | |
| 20260905172029 | 63 | 285 | 1.0 | 3.0 | 0.00 | 0.08 | 0.04 | 62 | 1015.7 |
| 20260905171527 | 63 | 290 | 1.0 | 3.0 | 0.00 | 0.08 | 0.04 | 62 | 1015.8 |
| 20260905171025 | 63 | 286 | 3.0 | 7.0 | 0.00 | 0.08 | 0.04 | 61 | 1015.9 |
| 20260905170523 | 63 | 289 | 1.0 | 4.0 | 0.00 | 0.08 | 0.04 | 61 | 1015.7 |
| 20260905170022 | 63 | 293 | 3.0 | 8.0 | 0.00 | 0.08 | 0.04 | 61 | 1015.8 |
| 20260905165519 | 64 | 286 | 3.0 | 8.0 | 0.00 | 0.08 | 0.04 | 61 | 1015.8 |
| 20260905165018 | 64 | 288 | 3.0 | 8.0 | 0.00 | 0.08 | 0.04 | 61 | 1015.7 |
| 20260905164515 | 64 | 299 | 3.0 | 8.0 | 0.00 | 0.08 | 0.04 | 61 | 1015.9 |
| 20260905164034 | 64 | 348 | 5.0 | 11.0 | 0.00 | 0.08 | 0.04 | 60 | 1015.8 |
| 20260905163532 | 64 | 315 | 4.0 | 10.0 | 0.00 | 0.08 | 0.04 | 59 | 1015.7 |
| 20260905163029 | 65 | 334 | 5.0 | 13.0 | 0.00 | 0.08 | 0.04 | 59 | 1015.8 |
| 20260905162527 | 65 | 312 | 5.0 | 11.0 | 0.00 | 0.08 | 0.04 | 58 | 1015.7 |
| 20260905162025 | 65 | 334 | 7.0 | 17.0 | 0.00 | 0.08 | 0.04 | 57 | 1015.7 |
| 20260905161523 | 66 | 324 | 7.0 | 19.0 | 0.00 | 0.08 | 0.04 | 56 | 1015.7 |
| 20260905161022 | 67 | 335 | 10.0 | 25.0 | 0.00 | 0.08 | 0.04 | 54 | 1015.8 |
| 20260905160520 | 68 | 291 | 6.0 | 13.0 | 0.00 | 0.08 | 0.04 | 53 | 1015.3 |
| 20260905160018 | 68 | 285 | 8.0 | 16.0 | 0.00 | 0.08 | 0.04 | 53 | 1015.2 |
| 20260905155516 | 68 | 286 | 7.0 | 14.0 | 0.00 | 0.08 | 0.04 | 52 | 1015.1 |
| 20260905155034 | 68 | 283 | 7.0 | 13.0 | 0.00 | 0.08 | 0.04 | 52 | 1015.1 |
| 20260905154532 | 67 | 281 | 8.0 | 18.0 | 0.00 | 0.08 | 0.04 | 52 | 1015.0 |
| 20260905154030 | 67 | 277 | 7.0 | 16.0 | 0.00 | 0.08 | 0.04 | 52 | 1015.0 |
| 20260905153528 | 67 | 282 | 6.0 | 11.0 | 0.00 | 0.08 | 0.04 | 52 | 1015.0 |
| 20260905153026 | 68 | 292 | 6.0 | 10.0 | 0.00 | 0.08 | 0.04 | 51 | 1014.9 |
| 20260905152524 | 68 | 285 | 7.0 | 13.0 | 0.00 | 0.08 | 0.04 | 50 | 1014.9 |
| 20260905152022 | 68 | 291 | 7.0 | 17.0 | 0.00 | 0.08 | 0.04 | 50 | 1014.9 |
| 20260905151521 | 68 | 284 | 5.0 | 11.0 | 0.00 | 0.08 | 0.04 | 50 | 1014.8 |
| 20260905151019 | 68 | 290 | 6.0 | 15.0 | 0.00 | 0.08 | 0.04 | 50 | 1014.8 |
| 20260905150517 | 68 | 282 | 7.0 | 13.0 | 0.00 | 0.08 | 0.04 | 49 | 1015.0 |
| 20260905150035 | 68 | 287 | 7.0 | 13.0 | 0.00 | 0.08 | 0.04 | 48 | 1014.8 |
| 20260905145533 | 69 | 278 | 10.0 | 18.0 | 0.00 | 0.08 | 0.04 | 48 | 1014.8 |
| 20260905145031 | 69 | 287 | 8.0 | 17.0 | 0.00 | 0.08 | 0.04 | 48 | 1014.8 |
| 20260905144529 | 69 | 289 | 8.0 | 17.0 | 0.00 | 0.08 | 0.04 | 48 | 1014.9 |
| 20260905144027 | 69 | 296 | 8.0 | 14.0 | 0.00 | 0.08 | 0.04 | 48 | 1014.8 |
| 20260905143525 | 68 | 290 | 10.0 | 21.0 | 0.00 | 0.08 | 0.04 | 47 | 1014.9 |